This is the latest recevied weather packets stored in our database for station/object N7WSS. If no packets are shown the sender has not sent any weather packets the latest 10 day(s).
| Time | Temp. | Humidity | Pressure | Rain* | Wind** | Luminosity | Snow |
|---|---|---|---|---|---|---|---|
| 1777901157 | 17.78° C | 42% | 1012 hPa | 0 mm | - | - | - |
| 1777900855 | 17.22° C | 41% | 1012 hPa | 0 mm | - | - | - |
| 1777900552 | 17.22° C | 41% | 1011.9 hPa | 0 mm | - | - | - |
| 1777900249 | 18.33° C | 39% | 1011.7 hPa | 0 mm | - | - | - |
| 1777899945 | 17.78° C | 39% | 1011.7 hPa | 0 mm | - | - | - |
| 1777899642 | 17.78° C | 40% | 1011.7 hPa | 0 mm | - | - | - |
| 1777899340 | 17.22° C | 42% | 1011.8 hPa | 0 mm | - | - | - |
| 1777899037 | 16.67° C | 43% | 1011.6 hPa | 0 mm | - | - | - |
| 1777898734 | 16.67° C | 43% | 1011.6 hPa | 0 mm | - | - | - |
| 1777898432 | 16.67° C | 42% | 1011.5 hPa | 0 mm | - | - | - |
| 1777898129 | 16.67° C | 43% | 1011.5 hPa | 0 mm | - | - | - |
| 1777897826 | 16.67° C | 41% | 1011.2 hPa | 0 mm | - | - | - |
| 1777897522 | 17.22° C | 42% | 1011.1 hPa | 0 mm | - | - | - |
| 1777897217 | 17.22° C | 41% | 1011.4 hPa | 0 mm | - | - | - |
| 1777896914 | 16.67° C | 41% | 1011.2 hPa | 0 mm | - | - | - |
| 1777896612 | 16.67° C | 42% | 1011.3 hPa | 0 mm | - | - | - |
| 1777896308 | 16.11° C | 42% | 1011.1 hPa | 0 mm | - | - | - |
| 1777896007 | 16.67° C | 42% | 1011.2 hPa | 0 mm | - | - | - |
| 1777895704 | 16.67° C | 41% | 1011.3 hPa | 0 mm | - | - | - |
| 1777895401 | 16.67° C | 42% | 1011.2 hPa | 0 mm | - | - | - |
| 1777895098 | 16.67° C | 44% | 1010.8 hPa | 0 mm | - | - | - |
| 1777894795 | 16.67° C | 42% | 1010.9 hPa | 0 mm | - | - | - |
| 1777894492 | 16.11° C | 43% | 1011.1 hPa | 0 mm | - | - | - |
| 1777894189 | 16.67° C | 43% | 1010.9 hPa | 0 mm | - | - | - |
| 1777893886 | 16.67° C | 42% | 1011.2 hPa | 0 mm | - | - | - |
* Rain latest hour (hover to see other rain measurements)
** Current wind speed in m/s (hover to see current wind gust speed)